Regional Weather Roundup
Issued by NWS Albany, NY

Home | Current Version | Previous Version | Text Only | Print | Product List | Glossary On
Versions: 1 2 3 4 5 6 7 8 9 10 11 12 13 14 15 16 17 18 19 20 21 22 23 24 25 26 27 28 29 30 31 32 33 34 35 36 37 38 39 40 41 42 43 44 45 46 47 48 49 50
000
ASUS41 KALY 020110
RWRALY

NEW YORK STATE HOURLY WEATHER ROUNDUP
NATIONAL WEATHER SERVICE ALBANY NY
900 PM EDT SAT AUG 01 2015

NOTE: "FAIR" INDICATES FEW OR NO CLOUDS BELOW 12,000 FEET WITH NO
SIGNIFICANT WEATHER AND/OR NO OBSTRUCTIONS TO VISIBILITY.

NYZ032-033-038>043-046>054-057>066-NYZ062>081-020200-
EAST


CITY           SKY/WX    TMP DP  RH WIND       PRES   REMARKS
ALBANY         PTCLDY    73  54  51 NW6       29.83R
GLENS FALLS    CLEAR     71  52  50 S5        29.81R
POUGHKEEPSIE   CLEAR     78  54  43 W3        29.81R
NEWBURGH       CLEAR     73  57  56 W8        29.84R
MONTGOMERY     CLEAR     68  60  75 W5        29.84R
WHITE PLAINS   PTCLDY    76  59  55 NW6       29.83R
ISLIP          PTCLDY    78  59  51 NW3       29.80R
NEW YORK CITY  PTCLDY    82  57  42 NW7       29.81R
CENTRAL PARK   CLEAR     81  56  42 VRB3      29.85R
$$

NYZ005>009-017-018-044>046-055-056-020200-
CENTRAL


CITY           SKY/WX    TMP DP  RH WIND       PRES   REMARKS
FULTON         MOCLDY    64  59  83 CALM      29.84R
SYRACUSE       MOCLDY    67  57  70 CALM      29.84R
ROME           CLEAR     67  54  63 N5        29.86R
ELMIRA         PTCLDY    66  55  67 CALM      29.87R
BINGHAMTON     PTCLDY    68  53  58 NW5       29.89R
MONTICELLO     CLEAR     68  54  60 W5        29.90R
$$

NYZ026>034-041>043-020200-
NORTH


CITY           SKY/WX    TMP DP  RH WIND       PRES   REMARKS
WATERTOWN      PTCLDY    66  58  75 S5        29.82R
FORT DRUM      NOT AVBL
MASSENA        LGT RAIN  61  58  90 SW7       29.82R
SARANAC LAKE   PTCLDY    57  54  89 CALM      29.84R
PLATTSBURGH    MOCLDY    69  53  56 W6        29.78R
$$

NYZ001>004-010>016-019>021-020200-
WEST


CITY           SKY/WX    TMP DP  RH WIND       PRES   REMARKS
NIAGARA FALLS  PTCLDY    68  56  65 SW10      29.84S
BUFFALO        PTCLDY    71  54  54 SW10      29.86S
DUNKIRK        CLOUDY    72  59  63 SW9       29.89S
JAMESTOWN      CLOUDY    66  54  63 W6        29.94S
WELLSVILLE     CLEAR     64  51  62 W9        29.96R
ROCHESTER      MOCLDY    70  55  59 W10       29.85R
PENN YAN       CLEAR     69  56  62 W3        29.88R
$$

             KEY
       WCI = WIND CHILL INDEX
       VSB = VISIBILITY
       HX  = HEAT INDEX
$$



USA.gov is the U.S. government's official web portal to all federal, state and local government web resources and services.